Tracking 25693 objects as of 30-Jun-2022
HD Live streaming from Space Station
objects crossing your sky now

FLOCK 4P 3

Track FLOCK 4P 3 now!
10-day predictions
FLOCK 4P 3 is classified as:


NORAD ID: 44812
Int'l Code: 2019-081J
Perigee: 476.1 km
Apogee: 491.6 km
Inclination: 97.4 °
Period: 94.1 minutes
Semi major axis: 6854 km
RCS: Unknown
Launch date: November 27, 2019
Source: United States (US)
Launch site: SRIHARIKOTA (SRI)
aabbcc
Your satellite tracking list
Your tracking list is empty




NASA's NSSDC Master Catalog

Two Line Element Set (TLE):
1 44812U 19081J   22181.14859787  .00008908  00000-0  31162-3 0  9992
2 44812  97.4048 246.7516 0011284 157.7249 202.4484 15.29698618143866
Source of the keplerian elements: AFSPC